RH
44 61 64 58 80 100 100 98 100 100 100 100 100 100 69 37 39 58 99 100 38 35 72 100 97 93 96 63 34 22 22 24 33 35 24 21 16 36 39 67 64 68 74
53 68 54 74 100 100 100 100 100 100 100 100 100 100 98 90 68 40 39 55 87 82 42 53 68 70 58 38 30 22 22 30 29 26 32 34 14 30 75 98 97 75 73
63 79 92 100 100 100 99 100 100 100 100 100 100 100 100 100 100 100 85 59 39 39 46 32 19 17 16 13 13 16 20 24 24 23 20 24 28 29 72 99 93 78 82
81 96 100 98 96 94 78 82 99 92 99 100 100 100 100 100 100 100 99 100 83 57 50 25 23 18 20 21 27 22 14 12 15 22 28 27 26 22 69 99 100 95 80
82 97 100 99 62 56 45 30 28 61 67 50 44 45 55 72 98 100 100 100 100 100 100 93 58 37 33 68 28 57 41 38 40 39 40 39 36 29 30 99 100 100 97
84 96 100 88 58 24 22 21 19 18 17 25 52 39 22 17 18 30 65 100 100 100 100 100 100 100 90 68 94 89 100 64 32 43 46 43 41 45 36 32 69 99 99
94 100 94 56 33 33 24 21 18 17 17 16 16 14 13 11 10 10 10 12 14 51 81 88 99 100 100 100 100 100 98 99 95 77 70 54 50 48 46 53 97 100 99
100 100 90 64 56 36 32 21 18 19 19 20 22 17 10 9 8 7 6 6 5 5 5 6 8 19 53 90 97 99 100 100 100 100 100 98 91 78 69 71 74 97 98
100 100 81 70 39 28 25 22 20 21 24 25 26 27 11 9 7 6 6 6 6 6 5 5 4 4 4 4 4 7 18 44 77 96 92 93 100 100 99 92 89 94 93
100 100 96 67 48 37 28 23 19 23 23 25 28 28 25 11 10 9 8 8 7 8 7 6 5 5 5 5 5 5 5 4 4 4 4 16 49 31 55 79 99 98 99
100 100 100 90 90 66 30 25 28 20 22 32 41 36 27 24 11 9 8 8 8 8 7 7 7 7 7 7 7 6 6 6 6 6 5 4 4 4 4 3 3 4 6
100 100 86 45 38 38 35 31 46 22 23 31 39 41 36 25 18 13 11 10 10 10 10 10 11 12 12 11 10 10 10 10 9 8 8 7 6 5 5 5 5 4 4
100 100 100 96 51 41 44 50 34 32 23 22 24 32 39 33 27 22 18 17 14 12 12 12 13 15 20 23 22 19 17 14 13 12 10 8 8 8 7 6 6 6 6
100 100 100 100 95 61 46 40 42 39 31 22 25 39 47 44 43 37 31 26 21 19 19 19 19 21 26 26 23 21 18 17 16 15 14 12 11 10 9 8 8 7 6
100 100 100 100 100 93 74 44 43 43 39 36 33 38 52 56 57 53 47 43 39 34 31 28 28 30 32 32 28 24 21 20 18 16 14 13 13 13 13 11 10 8 6
100 100 100 100 100 98 81 53 48 44 45 52 37 53 75 69 73 72 67 59 56 52 48 46 42 40 40 40 39 34 35 35 31 26 23 20 17 16 16 14 12 11 10
100 100 100 100 100 99 96 88 61 51 46 49 60 81 88 84 79 84 81 76 70 68 62 59 60 60 59 57 54 50 44 38 34 29 25 23 20 17 15 15 13 12 10
100 100 100 100 100 100 100 99 97 94 88 91 94 92 97 98 96 96 98 95 90 85 81 81 79 72 65 59 54 48 41 36 31 28 26 24 22 19 17 16 13 12 11
100 100 100 100 100 100 100 100 100 100 100 100 100 99 100 100 99 95 89 82 82 84 81 75 69 63 58 53 48 44 41 36 32 29 27 24 22 18 17 15 14 15 20
100 100 100 100 100 100 100 100 100 100 100 100 100 100 100 100 97 97 95 87 82 77 74 72 67 63 59 55 51 45 38 31 26 23 20 18 19 23 27 28 27 25 22
100 100 100 100 100 100 100 100 100 100 100 100 100 100 97 99 97 87 83 84 84 81 77 74 71 68 64 56 48 38 29 23 22 23 30 35 36 33 29 26 23 21 18
100 100 100 100 100 100 100 100 100 100 100 100 100 100 98 93 89 88 90 90 86 84 80 77 74 66 59 48 35 27 27 31 36 39 39 36 32 28 23 19 13 10 8
100 100 100 100 100 100 100 100 100 100 100 100 100 100 98 95 94 93 91 88 84 80 77 74 68 60 47 33 32 39 44 45 43 38 32 25 18 12 10 9 10 12 15
97 100 100 100 100 100 100 100 100 100 100 100 100 98 98 97 98 95 89 83 81 80 78 70 59 42 39 47 55 54 51 45 36 22 15 11 11 12 16 22 24 24 22
100 100 100 100 100 100 100 100 100 100 100 100 100 100 99 99 96 91 87 87 85 78 66 50 47 55 62 61 58 52 41 22 12 11 13 14 18 25 28 25 20 19 19
100 100 100 100 100 100 100 100 100 100 100 100 100 100 99 95 93 92 90 82 69 57 58 66 69 69 64 57 46 25 13 13 16 16 17 25 30 27 23 22 21 22 28
Wind_Speed
38 37 37 36 41 34 30 29 27 17 13 14 15 13 14 15 14 14 12 12 16 21 27 28 36 40 40 42 45 49 52 49 44 50 54 58 62 54 52 61 59 58 55
35 34 35 35 28 9 5 6 5 9 10 10 12 12 12 13 13 13 12 12 12 11 11 19 25 31 32 34 38 40 41 45 41 45 50 51 56 57 55 36 48 55 59
31 30 31 24 6 11 18 13 14 15 11 9 8 8 9 9 10 11 10 11 8 8 9 9 11 15 19 23 29 35 41 44 45 46 48 53 54 53 55 54 60 58 55
26 27 28 15 10 19 20 22 24 25 24 21 15 12 12 11 8 9 11 9 9 9 10 7 9 10 12 15 17 21 27 33 37 41 46 52 55 54 58 46 49 48 48
22 18 24 18 5 9 11 13 15 18 20 22 24 24 24 24 21 17 9 8 7 2 4 8 10 7 7 9 10 12 18 25 30 36 41 45 49 54 55 54 42 41 51
20 20 22 5 2 5 7 10 11 13 14 14 16 17 18 20 21 24 25 22 13 5 3 8 10 11 10 10 11 16 16 22 22 25 32 40 44 47 48 55 58 58 51
19 15 12 5 3 4 6 9 10 10 11 12 14 14 14 14 15 17 18 20 22 23 24 22 14 4 2 9 10 8 17 16 24 27 31 33 40 47 50 52 61 66 59
18 22 14 6 8 8 7 9 10 10 10 12 13 14 13 11 12 14 16 18 18 19 19 18 17 18 17 13 3 6 10 8 10 18 24 31 40 44 47 50 54 55 66
23 23 17 14 12 12 10 10 10 11 12 14 15 15 13 10 8 10 11 13 13 14 14 15 15 15 16 14 13 11 11 13 13 13 10 14 23 33 36 40 45 49 53
23 25 25 19 15 15 15 11 12 14 14 15 17 17 14 12 9 7 7 8 9 10 11 11 11 10 10 10 11 12 13 13 14 13 12 13 16 17 19 22 25 31 40
26 27 25 20 19 19 20 15 15 14 13 15 18 20 19 17 15 13 11 10 11 11 12 13 15 15 15 14 14 15 16 18 21 22 22 22 21 22 24 25 27 29 31
28 29 30 26 25 23 22 21 19 18 17 16 18 21 22 21 20 20 18 17 17 17 18 19 20 21 22 22 21 22 23 25 27 28 28 30 32 34 36 37 37 39 42
24 30 32 34 28 27 26 26 25 23 20 20 21 22 22 23 23 23 23 22 23 25 25 25 26 26 26 28 28 28 29 30 32 34 37 38 39 39 40 45 50 54 54
26 31 38 35 32 31 31 31 29 28 26 25 24 25 25 26 25 26 26 26 27 28 29 29 30 31 32 33 33 34 35 37 40 41 42 44 45 47 50 51 53 56 59
27 33 38 39 34 33 34 35 34 33 32 31 30 30 30 29 28 28 29 29 30 31 32 33 34 35 36 37 38 40 41 44 46 48 50 52 54 56 57 58 60 62 65
29 32 35 41 38 36 36 36 37 37 37 37 36 36 35 33 32 32 32 32 33 34 35 36 37 39 40 42 44 46 51 53 54 55 56 57 60 61 62 63 65 68 70
29 30 34 41 43 40 39 39 39 40 40 39 41 43 42 40 37 36 36 38 39 40 41 42 44 45 47 48 50 50 51 53 55 57 58 59 60 61 64 66 68 70 71
32 32 32 37 43 46 44 43 42 43 45 47 46 47 45 44 42 41 41 42 43 44 45 45 45 46 47 49 50 52 54 57 58 58 58 59 62 65 66 68 70 71 71
36 34 34 36 37 42 47 49 50 50 50 49 49 49 46 43 42 42 43 44 45 45 45 46 46 48 48 50 53 56 57 58 59 60 62 64 66 67 68 69 69 68 67
37 36 35 35 35 38 40 44 48 50 51 50 45 42 40 39 40 42 44 43 43 44 45 47 47 49 51 54 56 58 60 63 65 66 67 68 67 66 66 67 67 68 69
38 37 36 37 36 36 38 41 44 44 41 39 39 37 38 41 41 42 43 43 45 46 47 48 49 52 55 57 61 64 67 68 68 67 66 66 67 68 69 71 72 73 73
37 38 35 36 34 32 33 33 35 36 36 36 36 39 40 41 42 43 44 46 47 48 49 50 53 57 60 64 67 68 67 67 67 68 69 70 72 73 74 74 74 73 72
32 32 33 33 33 30 30 32 32 33 34 36 39 40 40 42 44 45 47 48 48 49 52 55 59 63 67 68 68 68 67 68 69 71 72 72 72 71 70 68 66 64 63
36 33 30 30 30 29 29 29 31 32 35 38 39 41 43 44 46 46 47 48 50 53 57 61 66 68 67 67 68 68 69 71 71 70 69 68 66 65 63 61 61 61 62
34 31 31 30 27 25 27 29 32 35 38 39 41 42 44 45 46 46 48 51 55 59 63 66 65 66 66 67 68 69 70 69 66 65 64 63 61 60 60 60 60 58 58
27 28 27 25 25 27 29 32 35 37 39 40 41 43 44 44 46 49 53 58 61 63 63 63 64 65 66 67 68 67 65 63 63 62 60 58 58 58 56 56 54 51 50
Wind_Direction
309 316 318 320 322 312 312 323 325 321 313 312 320 316 316 324 317 304 295 294 298 267 256 252 246 247 249 248 250 250 247 243 241 229 227 228 228 230 241 247 245 245 246
308 317 318 320 310 297 331 314 359 345 330 319 325 319 318 322 332 335 328 304 302 309 268 250 246 245 248 246 247 248 243 241 241 234 230 229 227 225 226 236 239 245 247
307 318 321 292 240 47 48 58 67 67 48 17 358 340 330 334 333 321 319 333 343 323 304 273 247 247 251 251 247 242 240 241 239 235 235 234 231 227 224 233 242 242 248
307 312 303 276 19 34 31 33 41 45 52 65 66 62 55 45 20 351 343 329 332 352 355 305 268 260 264 258 254 251 245 240 239 240 238 234 233 230 230 232 237 236 239
300 290 274 302 31 39 31 32 41 46 49 48 50 49 54 54 54 55 30 351 345 329 279 316 324 306 271 270 261 267 256 247 247 246 244 237 233 233 231 232 235 235 242
294 297 280 162 50 24 19 11 17 26 37 44 46 45 45 49 45 43 44 56 75 89 272 274 283 285 290 277 283 286 285 249 241 245 244 239 239 236 237 247 251 246 246
289 260 229 167 272 310 340 341 347 4 16 24 27 28 30 37 44 49 50 50 43 44 45 47 58 49 268 250 220 258 284 286 247 246 245 243 244 242 242 246 243 240 232
273 248 216 209 251 268 294 319 327 340 352 356 1 4 3 19 36 46 50 50 47 48 46 45 43 39 36 33 7 292 293 279 273 267 264 254 245 245 247 253 258 260 249
266 237 220 220 247 261 279 298 310 323 333 340 340 340 346 349 20 44 56 57 53 50 48 46 42 40 41 41 44 38 20 2 344 326 331 299 268 256 258 259 260 258 260
266 244 226 223 238 257 268 282 301 304 315 325 327 326 323 321 327 347 4 7 12 19 18 13 13 15 15 13 9 5 360 353 346 342 336 322 311 309 300 290 277 270 262
263 256 236 237 242 252 261 266 279 288 298 311 318 320 317 307 307 311 318 323 326 331 335 334 333 331 330 328 327 326 325 325 325 324 321 315 309 309 307 302 301 303 303
267 254 233 237 243 248 258 265 273 278 284 290 300 307 309 307 300 299 301 302 305 309 313 315 314 313 312 310 308 308 309 309 309 308 308 309 308 305 305 304 300 299 299
262 253 242 235 244 250 253 262 266 272 276 282 288 295 300 301 297 295 293 294 297 299 300 301 303 304 303 303 304 305 305 305 304 303 302 301 300 298 296 299 300 301 300
260 254 249 240 241 249 254 258 264 269 272 274 277 283 289 292 294 295 295 295 294 294 295 294 295 297 298 300 300 300 301 302 303 302 301 298 295 295 294 294 295 294 294
266 266 255 242 243 248 255 260 264 268 272 273 274 276 280 284 288 290 293 293 293 293 292 291 292 293 294 294 295 296 297 298 299 299 299 299 296 293 291 291 292 292 290
270 270 261 248 242 248 254 260 264 267 269 273 277 279 280 283 285 288 289 289 290 290 290 289 288 290 291 292 291 290 292 294 295 295 294 292 291 290 290 291 291 291 290
269 271 266 259 251 248 253 258 262 266 270 272 274 276 278 279 283 286 290 291 291 289 289 289 290 290 291 291 291 291 291 291 292 293 291 290 290 289 289 289 289 288 288
268 271 273 270 262 257 254 256 260 264 266 268 271 276 282 286 287 289 290 289 288 289 291 293 294 293 293 293 293 293 294 294 294 293 292 291 291 290 289 289 289 288 286
264 269 272 273 273 270 267 265 264 265 268 272 277 284 289 291 292 289 288 290 291 291 292 293 294 294 294 294 294 295 295 295 295 295 294 292 291 290 289 288 287 285 284
265 271 271 273 276 277 279 279 276 275 278 282 286 289 289 289 288 289 291 292 293 294 294 294 295 295 296 297 297 298 299 300 299 299 297 296 293 290 289 289 288 287 286
268 273 271 272 274 277 280 280 280 280 283 286 288 288 288 288 290 291 292 294 294 294 295 296 297 298 299 299 300 301 302 302 302 300 298 296 295 295 295 294 293 291 289
262 271 271 269 266 270 277 282 283 285 285 282 286 286 286 287 290 292 293 294 295 296 298 299 300 300 301 302 303 304 304 304 303 302 301 301 300 300 299 297 295 293 291
275 269 268 269 268 273 277 279 279 278 280 281 280 282 286 290 292 293 295 296 297 299 300 301 302 302 304 304 305 305 304 304 304 304 304 303 302 302 301 299 297 295 293
269 274 270 268 267 267 269 272 276 280 280 279 283 286 289 291 293 295 297 299 300 301 302 302 303 304 304 305 305 305 306 306 306 306 306 306 305 304 302 300 298 297 295
268 263 259 260 262 268 275 278 281 280 280 283 286 288 291 292 295 297 300 301 302 302 303 304 304 304 305 306 307 307 307 307 308 308 308 307 306 305 304 303 302 301 299
269 266 263 264 269 273 277 278 278 280 284 286 289 291 293 296 298 300 301 302 303 304 304 305 305 307 308 308 308 309 309 309 310 310 309 308 308 308 308 307 305 304 303